Weather History for Gibraltar, Gibraltar

Change the Weather History Date:

Tuesday, November 20, 2012

  Actual Average Record
Temperature  
Mean Temperature 59 °F -  
Max Temperature 64 °F 61 °F 73 °F (2006)
Min Temperature 54 °F 53 °F 48 °F (1999)
Degree Days  
Heating Degree Days 6    
Growing Degree Days 9 (Base 50)    
Moisture  
Dew Point 55 °F    
Average Humidity 84    
Maximum Humidity 94    
Minimum Humidity 65    
Precipitation  
Precipitation 0.00 in - - ()
Sea Level Pressure  
Sea Level Pressure 30.08 in    
Wind  
Wind Speed 5 mph ()    
Max Wind Speed 9 mph    
Max Gust Speed -    
Visibility 6.9 miles    
Events      
Averages and records for this station are not official NWS values.
T = Trace of Precipitation, MM = Missing Value Source: Averaged Metar Reports

Daily Weather History Graph

Daily Weather History Graph

Search for Another Location

Airport:

Trip Planner

Search our weather history database for the weather conditions in past years. The results will help you decide how hot, cold, wet, or windy it might be!

Date:

Astronomy

Nov. 20, 2012 Rise Set
Actual Time 8:03 AM CET 6:10 PM CET
Civil Twilight 7:35 AM CET 6:38 PM CET
Nautical Twilight 7:04 AM CET 7:09 PM CET
Astronomical Twilight 6:33 AM CET 7:39 PM CET
Moon 1:36 PM CET (11/20) 12:18 AM CET (11/20)
Length of Visible Light 11h 02m
Length of Day
10h 06m
Waxing Crescent, 48% of the Moon is Illuminated
Nov 20
Waxing Crescent
Nov 20
First Quarter
Nov 28
Full
Dec 6
Last Quarter
Dec 13
New

Hourly Weather History & Observations

Time (CET) Temp. Dew Point Humidity Pressure Visibility Wind Dir Wind Speed Gust Speed Precip Events Conditions
12:50 AM 58 °F 56 °F 89% 30.10 in 9 mi West 5.8 mph - -  
12:50 AM 59.0 °F 55.4 °F 88% 30.09 in 6.2 mi West 5.8 mph - N/A   Unknown
1:50 AM 57.2 °F 55.4 °F 94% 30.09 in 6.2 mi West 5.8 mph - N/A   Unknown
2:50 AM 57.2 °F 53.6 °F 88% 30.06 in 6.2 mi West 4.6 mph - N/A   Unknown
3:50 AM 57.2 °F 53.6 °F 88% 30.06 in 6.2 mi WSW 5.8 mph - N/A   Unknown
4:50 AM 55.4 °F 53.6 °F 94% 30.06 in 6.2 mi West 6.9 mph - N/A   Unknown
5:50 AM 55.4 °F 53.6 °F 94% 30.06 in 6.2 mi WSW 6.9 mph - N/A   Unknown
6:50 AM 55 °F 53 °F 88% 30.08 in 9 mi WSW 5.8 mph - -   Scattered Clouds
6:50 AM 55.4 °F 51.8 °F 88% 30.06 in 6.2 mi WSW 5.8 mph - N/A   Partly Cloudy
7:50 AM 55.4 °F 51.8 °F 88% 30.09 in 6.2 mi WSW 5.8 mph - N/A   Partly Cloudy
8:50 AM 55.4 °F 51.8 °F 88% 30.09 in 6.2 mi WSW 5.8 mph - N/A   Scattered Clouds
9:50 AM 57.2 °F 53.6 °F 88% 30.12 in 6.2 mi West 5.8 mph - N/A   Scattered Clouds
10:50 AM 59.0 °F 53.6 °F 82% 30.12 in 6.2 mi WSW 2.3 mph - N/A   Partly Cloudy
11:50 AM 62.6 °F 53.6 °F 72% 30.09 in 6.2 mi East 5.8 mph - N/A   Scattered Clouds
12:50 PM 63 °F 54 °F 65% 30.09 in 19 mi ESE 6.9 mph - -   Scattered Clouds
12:50 PM 62.6 °F 53.6 °F 72% 30.06 in 6.2 mi ESE 6.9 mph - N/A   Partly Cloudy
1:50 PM 64.4 °F 55.4 °F 73% 30.06 in 6.2 mi East 6.9 mph - N/A   Partly Cloudy
2:50 PM 64.4 °F 57.2 °F 77% 30.06 in 6.2 mi NE 3.5 mph - N/A   Scattered Clouds
3:50 PM 64.4 °F 57.2 °F 77% 30.04 in 6.2 mi ESE 8.1 mph - N/A   Scattered Clouds
4:50 PM 64.4 °F 57.2 °F 77% 30.06 in 6.2 mi ESE 8.1 mph - N/A   Scattered Clouds
5:50 PM 62.6 °F 57.2 °F 82% 30.04 in 6.2 mi ESE 9.2 mph - N/A   Mostly Cloudy
6:50 PM 62.6 °F 55.4 °F 77% 30.06 in 6.2 mi SSE 3.5 mph - N/A   Mostly Cloudy
7:50 PM 62.6 °F 57.2 °F 82% 30.09 in 6.2 mi SSW 2.3 mph - N/A   Mostly Cloudy
8:50 PM 62.6 °F 59.0 °F 88% 30.09 in 6.2 mi WNW 3.5 mph - N/A   Mostly Cloudy
9:50 PM 60.8 °F 59.0 °F 94% 30.09 in 6.2 mi West 3.5 mph - N/A   Mostly Cloudy
10:50 PM 60.8 °F 59.0 °F 94% 30.09 in - WSW 2.3 mph - N/A   Clear
11:50 PM 60.8 °F 57.2 °F 88% 30.09 in 6.2 mi WNW 4.6 mph - N/A   Partly Cloudy